{"data":{"norad_id":62006,"intl_designator":"2024-212A","name":"OPTUS-X (ADS-01)","alt_names":[],"object_type":"PAYLOAD","status":"ACTIVE","operator":null,"country":"AUS","launch_date":"2024-11-17","launch_site_code":"AFETR","launch_vehicle":null,"mission":null,"orbit_class":"UNKNOWN","rcs_meters":null,"size_class":null,"mass_kg":null,"dimensions":null,"purposes":["comms"],"wikipedia_slug":null,"has_3d_model":false,"image_url":null,"decayed_at":null,"tle_current":{"epoch":"2026-09-19T19:25:29.701920Z","epoch_age_seconds":81668,"freshness":"FRESH","line1":"1 62006U 24212A   26262.80937155 -.00000147  00000+0  00000+0 0  9992","line2":"2 62006   0.0314 264.7337 0002624 269.5792 272.1917  1.00272049  6707","mean_motion":1.00272049,"eccentricity":0.0002624,"inclination_deg":0.0314,"raan_deg":264.7337,"arg_perigee_deg":269.5792,"mean_anomaly_deg":272.1917,"bstar":0,"rev_number":670,"period_min":1436.0931230198,"perigee_km":35775.456946323,"apogee_km":35797.584958816,"semimajor_km":42164.65795257,"source":"CELESTRAK","updated_at":"2026-09-20T09:00:35.339565Z"}}}